Location: Carter Cabin
(41.0271°N, 122.9339°W)
Time: 13:47:32
(UTC+00:00)

Cosmos 1766 - Pass Details

Date: 13 April 2024
Orbit: 487 x 505 km, 82.5° (Epoch: 22 May)

Event Time Altitude Azimuth Distance (km) Brightness Sun altitude
Rises 12:43:21 0° 350° (N) 2,574 6.9 -10.1°
Reaches altitude 10° 12:45:28 10° 348° (NNW) 1,685 5.9 -9.7°
Maximum altitude 12:49:09 73° 264° (W) 513 3.0 -9.0°
Drops below altitude 10° 12:52:46 10° 180° (S) 1,667 5.6 -8.4°
Sets 12:54:52 0° 178° (S) 2,542 6.5 -8.0°
